Fountain Dale, PA

5:03 PM EDT on April 29, 2017 (GMT -0400)
Fountain Dale

Weather History for KRYT - June, 2013

Change the Weather History Date:

Tuesday, June 18, 2013

  Actual Average (KHGR) Record (KHGR)
Temperature  
Mean Temperature 72 °F -  
Max Temperature 78 °F 79 °F 92 °F (2006)
Min Temperature 66 °F 60 °F 48 °F (1999)
Cooling Degree Days 6    
Growing Degree Days 22 (Base 50)    
Moisture  
Dew Point 64 °F    
Average Humidity 76    
Maximum Humidity 88    
Minimum Humidity 69    
Precipitation  
Precipitation 0.02 in - - ()
Sea Level Pressure  
Sea Level Pressure 29.84 in    
Wind  
Wind Speed 0 mph (NE)    
Max Wind Speed 5 mph    
Max Gust Speed -    
Visibility 9 miles    
Events Rain , Thunderstorm    
Averages and records for this station are not official NWS values.
T = Trace of Precipitation, MM = Missing Value Source: NWS Daily Summary

Daily Weather History Graph

Daily Weather History Graph

Search for Another Location

Airport or City:

Trip Planner

Search our weather history database for the weather conditions in past years. The results will help you decide how hot, cold, wet, or windy it might be!

Date:

Astronomy

Jun. 18, 2013 Rise Set
Actual Time 5:41 AM EDT 8:40 PM EDT
Civil Twilight 5:08 AM EDT 9:13 PM EDT
Nautical Twilight 4:27 AM EDT 9:54 PM EDT
Astronomical Twilight 3:39 AM EDT 10:42 PM EDT
Moon 3:23 PM EDT (6/18) 1:47 AM EDT (6/18)
Length of Visible Light 16h 04m
Length of Day
14h 59m
Waxing Gibbous, 70% of the Moon is Illuminated
Jun 18
Waxing Gibbous
Jun 23
Full
Jun 30
Last Quarter
Jul 8
New
Jul 15
First Quarter

Hourly Weather History & Observations

Time (EDT) Temp. Dew Point Humidity Pressure Visibility Wind Dir Wind Speed Gust Speed Precip Events Conditions
12:53 AM 70.0 °F 61.0 °F 73% 29.89 in 10.0 mi Calm Calm - N/A   Clear
1:53 AM 68.0 °F 60.1 °F 76% 29.87 in 10.0 mi Calm Calm - N/A   Clear
2:53 AM 66.9 °F 61.0 °F 81% 29.85 in 10.0 mi Calm Calm - N/A   Partly Cloudy
3:53 AM 66.9 °F 61.0 °F 81% 29.84 in 10.0 mi Calm Calm - N/A   Clear
4:53 AM 66.0 °F 60.1 °F 81% 29.84 in 9.0 mi Calm Calm - N/A   Clear
5:53 AM 66.9 °F 61.0 °F 81% 29.85 in 10.0 mi Calm Calm - N/A   Partly Cloudy
6:53 AM 66.9 °F 62.1 °F 84% 29.85 in 8.0 mi Calm Calm - N/A   Partly Cloudy
7:53 AM 72.0 °F 64.0 °F 76% 29.85 in 10.0 mi Calm Calm - N/A   Scattered Clouds
8:53 AM 75.0 °F 64.0 °F 69% 29.85 in 10.0 mi Calm Calm - N/A   Clear
9:53 AM 75.0 °F 64.0 °F 69% 29.85 in 10.0 mi Calm Calm - N/A   Partly Cloudy
10:53 AM 73.0 °F 64.0 °F 73% 29.87 in 10.0 mi Calm Calm - N/A   Overcast
11:53 AM 75.0 °F 64.9 °F 71% 29.85 in 10.0 mi Calm Calm - N/A   Partly Cloudy
12:53 PM 75.9 °F 64.9 °F 69% 29.83 in 10.0 mi Calm Calm - N/A   Mostly Cloudy
1:53 PM 75.9 °F 66.0 °F 71% 29.83 in 9.0 mi Calm Calm - 0.01 in Rain Light Rain
2:53 PM 77.0 °F 66.9 °F 71% 29.81 in 7.0 mi Variable 4.6 mph - 0.00 in   Clear
3:53 PM 75.9 °F 66.9 °F 74% 29.80 in 6.0 mi Variable 3.5 mph - N/A   Haze
4:53 PM 77.0 °F 66.9 °F 71% 29.80 in 7.0 mi Calm Calm - N/A   Overcast
5:11 PM 77.0 °F 68.0 °F 74% 29.83 in 7.0 mi Calm Calm - N/A   Mostly Cloudy
5:53 PM 77.0 °F 66.9 °F 71% 29.78 in 6.0 mi NNE 4.6 mph - N/A   Haze
6:53 PM 77.0 °F 68.0 °F 74% 29.79 in 8.0 mi Calm Calm - N/A   Scattered Clouds
7:53 PM 75.0 °F 66.9 °F 76% 29.80 in 7.0 mi Calm Calm - 0.00 in Rain Light Rain
8:53 PM 69.1 °F 63.0 °F 81% 29.82 in 10.0 mi Calm Calm - 0.01 in   Mostly Cloudy
9:40 PM 69.8 °F 62.6 °F 78% 29.88 in 10.0 mi Calm Calm - N/A Thunderstorm Thunderstorm
10:53 PM 66.9 °F 62.1 °F 84% 29.86 in 10.0 mi Calm Calm - N/A   Partly Cloudy
11:38 PM 66.2 °F 62.6 °F 88% 29.90 in 10.0 mi ENE 3.5 mph - N/A   Overcast
11:53 PM 66.9 °F 62.1 °F 84% 29.89 in 8.0 mi Calm Calm - N/A   Overcast